TimeCDT,TemperatureF,Dew PointF,Humidity,Sea Level PressureIn,VisibilityMPH,Wind Direction,Wind SpeedMPH,Gust SpeedMPH,PrecipitationIn,Events,Conditions,WindDirDegrees,DateUTC
12:52 AM,81.0,70.0,69,30.15,10.0,SSE,9.2,-,N/A,,Clear,160,2013-07-18 05:52:00
1:52 AM,81.0,69.1,67,30.14,10.0,South,9.2,-,N/A,,Clear,170,2013-07-18 06:52:00
2:52 AM,79.0,69.1,72,30.14,10.0,SSE,9.2,-,N/A,,Clear,160,2013-07-18 07:52:00
3:52 AM,77.0,69.1,76,30.14,10.0,SSE,8.1,-,N/A,,Clear,150,2013-07-18 08:52:00
4:52 AM,75.9,69.1,79,30.12,10.0,SSE,9.2,-,N/A,,Clear,160,2013-07-18 09:52:00
5:52 AM,73.9,69.1,85,30.12,10.0,SSE,6.9,-,N/A,,Partly Cloudy,150,2013-07-18 10:52:00
6:52 AM,75.0,69.1,82,30.12,10.0,SSE,6.9,-,N/A,,Clear,150,2013-07-18 11:52:00
7:52 AM,78.1,68.0,71,30.11,10.0,SSE,6.9,-,N/A,,Clear,160,2013-07-18 12:52:00
8:52 AM,82.0,69.1,65,30.10,10.0,South,6.9,-,N/A,,Clear,170,2013-07-18 13:52:00
9:52 AM,86.0,68.0,55,30.08,10.0,SW,11.5,-,N/A,,Clear,220,2013-07-18 14:52:00
10:52 AM,89.1,66.9,48,30.07,10.0,SSW,13.8,20.7,N/A,,Partly Cloudy,200,2013-07-18 15:52:00
11:52 AM,90.0,66.0,45,30.06,10.0,SSW,12.7,-,N/A,,Partly Cloudy,200,2013-07-18 16:52:00
12:52 PM,91.9,64.9,41,30.04,10.0,SSW,17.3,24.2,N/A,,Partly Cloudy,200,2013-07-18 17:52:00
1:52 PM,93.0,64.9,39,30.02,10.0,South,20.7,28.8,N/A,,Scattered Clouds,180,2013-07-18 18:52:00
2:52 PM,93.0,64.9,39,30.00,10.0,SSW,18.4,23.0,N/A,,Scattered Clouds,210,2013-07-18 19:52:00
3:52 PM,93.9,64.0,37,29.97,10.0,South,18.4,27.6,N/A,,Scattered Clouds,180,2013-07-18 20:52:00
4:52 PM,93.9,64.0,37,29.96,10.0,South,16.1,23.0,N/A,,Scattered Clouds,190,2013-07-18 21:52:00
5:52 PM,93.9,63.0,36,29.94,10.0,SSW,15.0,21.9,N/A,,Partly Cloudy,210,2013-07-18 22:52:00
6:52 PM,93.9,64.0,37,29.91,10.0,SSW,12.7,-,N/A,,Partly Cloudy,210,2013-07-18 23:52:00
7:52 PM,93.0,64.0,38,29.91,10.0,SSW,9.2,19.6,N/A,,Clear,210,2013-07-19 00:52:00
8:52 PM,90.0,64.9,43,29.90,10.0,South,6.9,-,N/A,,Clear,180,2013-07-19 01:52:00
9:52 PM,87.1,66.9,51,29.91,10.0,South,10.4,-,N/A,,Clear,180,2013-07-19 02:52:00
10:52 PM,86.0,66.9,53,29.92,10.0,South,8.1,-,N/A,,Clear,180,2013-07-19 03:52:00
11:52 PM,86.0,64.9,49,29.91,10.0,SSW,10.4,-,N/A,,Clear,200,2013-07-19 04:52:00